Weather History for Charlevoix, MI

Change the Weather History Date:

Monday, December 31, 2012

  Actual Average Record
Temperature  
Mean Temperature 26 °F -  
Max Temperature 33 °F 23 °F 50 °F (2004)
Min Temperature 20 °F 16 °F 9 °F (2013)
Degree Days  
Heating Degree Days 38    
Moisture  
Dew Point 21 °F    
Average Humidity 75    
Maximum Humidity 88    
Minimum Humidity 62    
Precipitation  
Precipitation 0.00 in - - ()
Sea Level Pressure  
Sea Level Pressure 29.93 in    
Wind  
Wind Speed 13 mph (WNW)    
Max Wind Speed 21 mph    
Max Gust Speed 31 mph    
Visibility 9 miles    
Events Snow    
Averages and records for this station are not official NWS values.
T = Trace of Precipitation, MM = Missing Value Source: NWS Daily Summary

Daily Weather History Graph

Daily Weather History Graph

Search for Another Location

Airport:

Trip Planner

Search our weather history database for the weather conditions in past years. The results will help you decide how hot, cold, wet, or windy it might be!

Date:

Astronomy

Dec. 31, 2012 Rise Set
Actual Time 8:20 AM EST 5:08 PM EST
Civil Twilight 7:46 AM EST 5:42 PM EST
Nautical Twilight 7:09 AM EST 6:19 PM EST
Astronomical Twilight 6:33 AM EST 6:55 PM EST
Moon 8:49 PM EST (12/31) 9:52 AM EST (12/31)
Length of Visible Light 9h 55m
Length of Day
8h 48m
Waning Gibbous, 90% of the Moon is Illuminated
Dec 31
Waning Gibbous
Jan 4
Last Quarter
Jan 11
New
Jan 18
First Quarter
Jan 26
Full

Hourly Weather History & Observations

Time (EST) Temp. Windchill Dew Point Humidity Pressure Visibility Wind Dir Wind Speed Gust Speed Precip Events Conditions
12:15 AM 28.0 °F 20.8 °F 24.4 °F 86% 29.99 in 10.0 mi SSE 6.9 mph - N/A   Overcast
12:35 AM 27.5 °F 20.2 °F 24.3 °F 88% 29.97 in 10.0 mi SE 6.9 mph - N/A   Overcast
12:54 AM 29.5 °F 21.8 °F 26.1 °F 87% 29.96 in 10.0 mi South 8.1 mph 16.1 mph N/A   Overcast
1:15 AM 30.2 °F 22.6 °F 26.4 °F 86% 29.94 in 10.0 mi South 8.1 mph - N/A   Overcast
1:34 AM 30.7 °F 24.1 °F 26.8 °F 85% 29.92 in 10.0 mi South 6.9 mph - N/A   Overcast
1:55 AM 31.6 °F 22.6 °F 27.5 °F 85% 29.91 in 10.0 mi South 11.5 mph 16.1 mph N/A   Overcast
2:14 AM 32.0 °F 24.8 °F 28.0 °F 85% 29.90 in 10.0 mi SSW 8.1 mph - N/A   Overcast
2:35 AM 32.0 °F 23.6 °F 28.0 °F 85% 29.90 in 10.0 mi SSW 10.4 mph 16.1 mph N/A   Mostly Cloudy
2:55 AM 32.0 °F 23.0 °F 28.2 °F 86% 29.89 in 10.0 mi SSW 11.5 mph 17.3 mph N/A   Clear
3:15 AM 32.0 °F 23.0 °F 28.4 °F 87% 29.89 in 10.0 mi SSW 11.5 mph 18.4 mph N/A   Mostly Cloudy
3:35 AM 32.2 °F 23.8 °F 28.8 °F 87% 29.88 in 10.0 mi SSW 10.4 mph 18.4 mph N/A   Overcast
3:55 AM 32.7 °F 24.5 °F 29.1 °F 87% 29.87 in 10.0 mi SW 10.4 mph 20.7 mph N/A   Overcast
4:15 AM 33.1 °F 23.4 °F 28.9 °F 85% 29.86 in 10.0 mi SW 13.8 mph 21.9 mph N/A   Overcast
4:34 AM 33.1 °F 23.9 °F 28.4 °F 83% 29.85 in 10.0 mi SW 12.7 mph 21.9 mph N/A   Overcast
4:54 AM 33.1 °F 23.9 °F 28.0 °F 82% 29.84 in 10.0 mi SW 12.7 mph 19.6 mph N/A   Overcast
5:15 AM 32.9 °F 23.2 °F 27.9 °F 82% 29.84 in 10.0 mi SW 13.8 mph 18.4 mph N/A   Overcast
5:34 AM 33.1 °F 22.2 °F 27.5 °F 80% 29.84 in 10.0 mi West 17.3 mph 21.9 mph N/A   Overcast
5:55 AM 33.1 °F 21.5 °F 27.1 °F 79% 29.83 in 10.0 mi WSW 19.6 mph 27.6 mph N/A   Overcast
6:15 AM 32.9 °F 22.0 °F 27.0 °F 79% 29.84 in 10.0 mi West 17.3 mph 23.0 mph N/A   Overcast
6:35 AM 32.4 °F 20.9 °F 27.1 °F 81% 29.84 in 10.0 mi West 18.4 mph 25.3 mph N/A   Overcast
6:55 AM 32.0 °F 20.8 °F 27.0 °F 82% 29.85 in 7.0 mi West 17.3 mph 28.8 mph N/A   Overcast
7:15 AM 32.0 °F 20.8 °F 26.8 °F 81% 29.86 in 7.0 mi West 17.3 mph 25.3 mph N/A   Overcast
7:35 AM 31.6 °F 20.4 °F 26.6 °F 82% 29.86 in 7.0 mi West 17.3 mph 21.9 mph N/A   Overcast
7:54 AM 31.3 °F 19.2 °F 26.1 °F 81% 29.87 in 7.0 mi West 19.6 mph - N/A   Overcast
8:15 AM 31.1 °F 19.7 °F 25.7 °F 80% 29.86 in 7.0 mi West 17.3 mph 23.0 mph N/A   Overcast
8:34 AM 31.1 °F 18.9 °F 24.8 °F 77% 29.87 in 7.0 mi WNW 19.6 mph 24.2 mph N/A   Overcast
8:55 AM 30.7 °F 20.0 °F 24.8 °F 79% 29.87 in 7.0 mi WNW 15.0 mph 24.2 mph N/A   Overcast
9:15 AM 30.0 °F 18.3 °F 23.7 °F 77% 29.88 in 5.0 mi WNW 17.3 mph - N/A   Haze
9:34 AM 29.3 °F 17.7 °F 23.7 °F 80% 29.88 in 5.0 mi WNW 16.1 mph 24.2 mph N/A   Haze
9:55 AM 29.3 °F 18.6 °F 23.5 °F 79% 29.89 in 10.0 mi WNW 13.8 mph - N/A   Overcast
10:15 AM 30.0 °F 19.5 °F 23.9 °F 78% 29.89 in 7.0 mi WNW 13.8 mph 21.9 mph N/A   Overcast
10:35 AM 30.2 °F 18.5 °F 24.3 °F 79% 29.89 in 7.0 mi West 17.3 mph 20.7 mph N/A   Overcast
10:55 AM 30.0 °F 19.5 °F 23.9 °F 78% 29.90 in 7.0 mi WNW 13.8 mph - N/A   Overcast
11:15 AM 30.0 °F 19.1 °F 24.1 °F 79% 29.91 in 7.0 mi NW 15.0 mph 24.2 mph N/A   Overcast
11:35 AM 30.0 °F 19.1 °F 23.2 °F 76% 29.90 in 7.0 mi WNW 15.0 mph 19.6 mph N/A   Overcast
11:55 AM 30.2 °F 19.3 °F 23.0 °F 75% 29.90 in 10.0 mi WNW 15.0 mph 23.0 mph N/A   Overcast
12:15 PM 30.0 °F 17.5 °F 22.5 °F 73% 29.90 in 10.0 mi WNW 19.6 mph 24.2 mph N/A   Overcast
12:35 PM 29.8 °F 18.0 °F 21.9 °F 72% 29.90 in 10.0 mi NW 17.3 mph 25.3 mph N/A   Overcast
12:54 PM 29.3 °F 18.2 °F 20.7 °F 70% 29.90 in 10.0 mi WNW 15.0 mph 23.0 mph N/A Snow Light Snow
1:15 PM 29.1 °F 16.4 °F 19.6 °F 68% 29.89 in 10.0 mi NW 19.6 mph 25.3 mph N/A   Overcast
1:35 PM 28.4 °F 15.4 °F 19.0 °F 68% 29.89 in 10.0 mi WNW 19.6 mph 24.2 mph N/A   Overcast
1:54 PM 28.4 °F 17.0 °F 18.1 °F 65% 29.89 in 10.0 mi WNW 15.0 mph 23.0 mph N/A   Overcast
2:15 PM 28.4 °F 16.2 °F 16.9 °F 62% 29.89 in 10.0 mi WNW 17.3 mph - N/A   Overcast
2:35 PM 28.2 °F 17.7 °F 17.8 °F 65% 29.90 in 10.0 mi WNW 12.7 mph 24.2 mph N/A Snow Light Snow
2:54 PM 28.0 °F 15.7 °F 19.2 °F 70% 29.90 in 7.0 mi NW 17.3 mph 23.0 mph N/A Snow Light Snow
3:15 PM 27.5 °F 15.9 °F 19.2 °F 71% 29.91 in 7.0 mi NW 15.0 mph 26.5 mph N/A Snow Light Snow
3:35 PM 27.1 °F 14.9 °F 18.7 °F 70% 29.92 in 10.0 mi NW 16.1 mph 21.9 mph N/A Snow Light Snow
3:55 PM 26.2 °F 13.0 °F 17.1 °F 68% 29.93 in 7.0 mi NW 18.4 mph 27.6 mph N/A   Overcast
4:15 PM 25.7 °F 11.5 °F 14.5 °F 63% 29.95 in 10.0 mi NW 20.7 mph 26.5 mph N/A   Overcast
4:35 PM 25.3 °F 11.4 °F 14.2 °F 63% 29.96 in 10.0 mi NW 19.6 mph 27.6 mph N/A   Overcast
4:55 PM 24.8 °F 11.1 °F 17.1 °F 72% 29.97 in 5.0 mi NNW 18.4 mph 31.1 mph N/A Snow Light Snow
5:35 PM 22.6 °F 8.7 °F 14.0 °F 69% 29.99 in 10.0 mi NNW 17.3 mph 31.1 mph N/A Snow Light Snow
5:54 PM 22.1 °F 6.8 °F 13.1 °F 68% 30.00 in 10.0 mi NNW 20.7 mph 27.6 mph N/A Snow Light Snow
6:15 PM 22.5 °F 8.5 °F 13.3 °F 68% 30.01 in 10.0 mi NW 17.3 mph 24.2 mph N/A   Overcast
6:35 PM 22.1 °F 8.0 °F 13.5 °F 69% 30.01 in 10.0 mi NW 17.3 mph 24.2 mph N/A Snow Light Snow
6:55 PM 21.9 °F 8.7 °F 13.3 °F 69% 30.02 in 10.0 mi NNW 15.0 mph 26.5 mph N/A Snow Light Snow
6:59 PM 21.9 °F 7.3 °F 12.9 °F 68% 30.02 in 10.0 mi NNW 18.4 mph 26.5 mph N/A Snow Light Snow
7:34 PM 21.7 °F 9.0 °F 11.8 °F 66% 30.03 in 10.0 mi NW 13.8 mph 23.0 mph N/A   Overcast
7:55 PM 21.6 °F 8.2 °F 12.2 °F 67% 30.04 in 10.0 mi NW 15.0 mph 23.0 mph N/A   Overcast
8:15 PM 21.7 °F 8.0 °F 13.8 °F 72% 30.04 in 10.0 mi NW 16.1 mph 20.7 mph N/A Snow Light Snow
8:35 PM 21.2 °F 6.8 °F 13.1 °F 71% 30.04 in 7.0 mi NNW 17.3 mph 21.9 mph N/A Snow Light Snow
8:54 PM 21.2 °F 7.3 °F 12.2 °F 68% 30.04 in 10.0 mi NW 16.1 mph 25.3 mph N/A Snow Light Snow
9:15 PM 21.0 °F 8.1 °F 10.8 °F 65% 30.04 in 10.0 mi NW 13.8 mph 23.0 mph N/A   Overcast
9:34 PM 20.8 °F 7.3 °F 10.8 °F 65% 30.05 in 10.0 mi NW 15.0 mph 26.5 mph N/A   Overcast
9:55 PM 20.8 °F 7.3 °F 11.3 °F 67% 30.05 in 10.0 mi NW 15.0 mph 23.0 mph N/A   Overcast
10:14 PM 20.8 °F 7.9 °F 10.4 °F 64% 30.05 in 10.0 mi NNW 13.8 mph 23.0 mph N/A   Overcast
10:35 PM 20.8 °F 7.3 °F 10.0 °F 63% 30.05 in 10.0 mi NW 15.0 mph 20.7 mph N/A   Overcast
10:54 PM 20.8 °F 7.3 °F 10.4 °F 64% 30.05 in 10.0 mi NW 15.0 mph 24.2 mph N/A   Overcast
11:15 PM 21.0 °F 8.1 °F 12.0 °F 68% 30.06 in 10.0 mi NW 13.8 mph 20.7 mph N/A Snow Light Snow
11:34 PM 20.8 °F 9.7 °F 10.6 °F 65% 30.06 in 10.0 mi NNW 10.4 mph 21.9 mph N/A   Overcast
11:55 PM 20.8 °F 9.0 °F 10.4 °F 64% 30.06 in 10.0 mi NNW 11.5 mph 19.6 mph N/A   Overcast